TimeCST,TemperatureF,Dew PointF,Humidity,Sea Level PressureIn,VisibilityMPH,Wind Direction,Wind SpeedMPH,Gust SpeedMPH,PrecipitationIn,Events,Conditions,WindDirDegrees,DateUTC
12:53 AM,10.9,6.1,81,30.31,10.0,NW,9.2,-,N/A,,Clear,310,2013-02-16 06:53:00
1:22 AM,10.4,6.8,85,30.24,9.0,NW,12.7,-,N/A,,Scattered Clouds,320,2013-02-16 07:22:00
1:32 AM,10.4,6.8,85,30.24,8.0,NW,13.8,-,N/A,,Mostly Cloudy,320,2013-02-16 07:32:00
1:53 AM,12.0,7.0,80,30.29,9.0,NW,13.8,-,N/A,,Overcast,310,2013-02-16 07:53:00
2:53 AM,12.9,7.0,77,30.28,4.0,NW,13.8,-,0.00,Snow,Light Snow,320,2013-02-16 08:53:00
3:53 AM,12.0,7.0,80,30.27,7.0,NNW,12.7,-,0.00,,Overcast,340,2013-02-16 09:53:00
4:53 AM,12.0,7.0,80,30.26,4.0,NNW,6.9,-,0.00,Snow,Light Snow,330,2013-02-16 10:53:00
5:53 AM,12.9,8.1,81,30.25,10.0,NW,12.7,-,0.00,,Overcast,320,2013-02-16 11:53:00
6:53 AM,14.0,8.1,77,30.25,10.0,NW,5.8,-,N/A,,Overcast,310,2013-02-16 12:53:00
7:53 AM,14.0,8.1,77,30.25,5.0,WNW,9.2,-,0.00,Snow,Light Snow,300,2013-02-16 13:53:00
8:53 AM,15.1,9.0,77,30.25,2.5,WNW,8.1,-,0.00,Snow,Light Snow,300,2013-02-16 14:53:00
9:10 AM,15.8,10.4,79,30.19,1.8,West,10.4,-,0.00,Snow,Light Snow,280,2013-02-16 15:10:00
9:15 AM,15.8,10.4,79,30.19,3.0,West,8.1,-,0.00,Snow,Light Snow,280,2013-02-16 15:15:00
9:47 AM,15.8,8.6,73,30.18,1.8,West,6.9,-,0.00,Snow,Light Snow,260,2013-02-16 15:47:00
9:48 AM,15.1,9.0,77,30.24,1.8,West,6.9,-,0.00,Snow,Light Snow,260,2013-02-16 15:48:00
9:59 AM,15.8,8.6,73,30.18,2.0,West,8.1,-,0.00,Snow,Light Snow,270,2013-02-16 15:59:00
10:13 AM,15.8,10.4,79,30.18,5.0,NW,3.5,-,0.00,Snow,Light Snow,310,2013-02-16 16:13:00
10:53 AM,18.0,10.0,71,30.22,10.0,West,3.5,-,0.00,,Mostly Cloudy,270,2013-02-16 16:53:00
11:38 AM,19.4,10.4,68,30.16,10.0,SW,4.6,-,N/A,,Scattered Clouds,230,2013-02-16 17:38:00
11:53 AM,21.0,12.0,68,30.21,10.0,Calm,Calm,-,N/A,,Scattered Clouds,0,2013-02-16 17:53:00
12:03 PM,19.4,10.4,68,30.15,10.0,West,3.5,-,N/A,,Mostly Cloudy,280,2013-02-16 18:03:00
12:30 PM,19.4,10.4,68,30.15,10.0,Variable,3.5,-,N/A,,Scattered Clouds,0,2013-02-16 18:30:00
12:40 PM,21.2,12.2,68,30.14,10.0,West,5.8,-,N/A,,Mostly Cloudy,260,2013-02-16 18:40:00
12:53 PM,23.0,12.9,65,30.19,10.0,SSW,5.8,-,N/A,,Mostly Cloudy,210,2013-02-16 18:53:00
1:53 PM,23.0,12.0,63,30.17,10.0,WSW,4.6,-,N/A,,Mostly Cloudy,250,2013-02-16 19:53:00
2:17 PM,24.8,12.2,59,30.12,10.0,WSW,6.9,-,N/A,,Scattered Clouds,250,2013-02-16 20:17:00
2:24 PM,24.8,12.2,59,30.12,10.0,WSW,9.2,-,N/A,,Mostly Cloudy,250,2013-02-16 20:24:00
2:53 PM,25.0,14.0,63,30.16,10.0,West,8.1,-,N/A,,Mostly Cloudy,260,2013-02-16 20:53:00
3:53 PM,26.1,14.0,60,30.15,10.0,SW,3.5,-,N/A,,Mostly Cloudy,230,2013-02-16 21:53:00
4:43 PM,24.8,12.2,59,30.11,10.0,WSW,3.5,-,N/A,,Scattered Clouds,240,2013-02-16 22:43:00
4:53 PM,25.0,12.9,60,30.15,10.0,Variable,4.6,-,N/A,,Partly Cloudy,0,2013-02-16 22:53:00
5:53 PM,24.1,12.9,62,30.16,10.0,Calm,Calm,-,N/A,,Clear,0,2013-02-16 23:53:00
6:53 PM,24.1,15.1,69,30.17,10.0,Calm,Calm,-,N/A,,Clear,0,2013-02-17 00:53:00
7:53 PM,23.0,16.0,74,30.16,10.0,ESE,5.8,-,N/A,,Clear,110,2013-02-17 01:53:00
8:53 PM,21.9,16.0,78,30.14,10.0,ESE,5.8,-,N/A,,Overcast,120,2013-02-17 02:53:00
9:53 PM,19.9,15.1,81,30.15,10.0,SSE,5.8,-,N/A,,Scattered Clouds,150,2013-02-17 03:53:00
10:53 PM,19.0,14.0,81,30.14,10.0,SE,5.8,-,N/A,,Clear,140,2013-02-17 04:53:00
11:53 PM,19.0,14.0,81,30.14,10.0,SE,6.9,-,N/A,,Partly Cloudy,130,2013-02-17 05:53:00